This demonstration page uses our WeatherBlox Daily Observations layout. Learn more.

Left ArrowRight Arrow

Hourly Observations for April 16, 2018

Temp ( °F °C ) Dew Point ( °F °C ) Humidity (%) Winds ( mph kmh ) Pressure ( in mb ) Visibility ( mi km ) Precip ( " mm )
12:53 am 00:53 Cloudy 27 -2.8 22 -5.6 81 81 N 14 22 30.26 1025 10 16 0.00 0.00
1:53 am 01:53 Cloudy 27 -2.8 22 -5.6 81 81 N 13 20 30.26 1025 10 16 0.00 0.00
2:53 am 02:53 Cloudy 27 -2.8 22 -5.6 81 81 NNW 12 19 30.27 1025 10 16 0.00 0.00
3:53 am 03:53 Cloudy 27 -2.8 21 -6.1 78 78 N 13 20 30.26 1025 10 16 0.00 0.00
4:53 am 04:53 Cloudy 25 -3.9 20 -6.7 81 81 NNW 6 9 30.26 1025 10 16 0.00 0.00
5:53 am 05:53 Cloudy 24 -4.4 21 -6.1 88 88 WNW 5 7 30.26 1025 10 16 0.00 0.00
6:26 am 06:26 Partly Cloudy 23 -5 20 -6.7 88 88 NW 6 9 30.30 1026 10 16 0.00 0.00
6:53 am 06:53 Clear 22 -5.6 19 -7.2 89 89 NNW 6 9 30.25 1025 10 16 0.00 0.00
7:53 am 07:53 Sunny 24 -4.4 21 -6.1 88 88 NNW 7 11 30.26 1025 10 16 0.00 0.00
8:53 am 08:53 Sunny 28 -2.2 22 -5.6 78 78 N 7 11 30.27 1025 10 16 0.00 0.00
9:53 am 09:53 Sunny 30 -1.1 24 -4.4 79 79 NE 8 13 30.25 1024 10 16 0.00 0.00
10:53 am 10:53 Mostly Sunny 32 0 26 -3.3 79 79 E 3 6 30.25 1024 10 16 0.00 0.00
11:53 am 11:53 Sunny 36 2.2 28 -2.2 73 73 VRB 6 9 30.23 1024 10 16 0.00 0.00
12:53 pm 12:53 Sunny 38 3.3 30 -1.1 73 73 VRB 5 7 30.18 1022 10 16 0.00 0.00
1:53 pm 13:53 Sunny 43 6.1 32 0 65 65 SE 6 9 30.14 1021 10 16 0.00 0.00
2:53 pm 14:53 Sunny 46 7.8 32 0 58 58 SE 9 15 30.10 1019 10 16 0.00 0.00
3:53 pm 15:53 Sunny 49 9.4 32 0 52 52 ESE 9 15 30.08 1019 10 16 0.00 0.00
4:53 pm 16:53 Sunny 49 9.4 31 -0.6 50 50 E 8 13 30.06 1018 10 16 0.00 0.00
5:53 pm 17:53 Sunny 50 10 31 -0.6 48 48 ESE 8 13 30.05 1018 10 16 0.00 0.00
6:53 pm 18:53 Sunny 50 10 30 -1.1 46 46 ESE 10 17 30.05 1018 10 16 0.00 0.00
7:53 pm 19:53 Sunny 47 8.3 30 -1.1 52 52 ESE 9 15 30.03 1017 10 16 0.00 0.00
8:53 pm 20:53 Clear 44 6.7 32 0 63 63 E 7 11 30.03 1017 10 16 0.00 0.00
9:53 pm 21:53 Clear 42 5.6 33 0.6 71 71 E 9 15 30.04 1017 10 16 0.00 0.00
10:53 pm 22:53 Clear 41 5 32 0 70 70 E 14 22 30.01 1016 10 16 0.00 0.00
11:53 pm 23:53 Clear 39 3.9 31 -0.6 73 73 E 13 20 30.00 1016 10 16 0.00 0.00

Powered by AerisWeather